www.pogodaiklimat.ru

Погода и климат >> Архив погоды >> Россия >> Курская область >> Рыльск


ПОГОДА в Рыльск

  • Прогноз погоды в Рыльск
  • Монитор погоды в Рыльск

АРХИВ ПОГОДЫ в Рыльск

Время (UTC), дата Ветер
(напр.,м/с)
 
Видим.   Явления Облачность Т
(С)
Тd
(С)
f
(%)
Тe
(С)
Тes
(С)
Комфортность P
(гПа)
Po
(гПа)
Тmin
(С)
Tmax
(С)
R
(мм)
R24
(мм)
S
(см)
06 16.08 С 2 10 км 8/0
[Ci fib]
+20.0 +15.5 75 +23 +28 комфорт 1008.2 984.4 +16.8
09 16.08 С 2 20 км 8/0
[Ac trans Ci sp]
+23.8 +15.3 59 +27 +35 жарко 1007.3 983.9
12 16.08 СЗ 3 20 км 8/0
[Ci sp]
+26.0 +14.8 50 +29 +31 душно 1008.4 985.3
15 16.08 СЗ 3 10 км 4/0
[Ci sp]
+24.9 +15.2 55 +28 +29 жарко 1006.9 983.6
18 16.08 СЗ 3 10 км 6/3 600 м
[Cu med, cong Ci fib]
+18.4 +15.0 81 +19 +19 1008.7 984.9 +26.4
21 16.08 СЗ 3 н/о н/о +17.6 +15.4 87 +18 +18 1008.8 984.9
00 17.08 СЗ 2 10 км 10/10 600 м
[Sc]
+16.8 +15.7 93 +17 +17 1009.2 985.3
03 17.08 С 2 4000 м слаб. ливневой дождь 10/10 600 м
[Sc]
+16.8 +16.0 95 +17 +17 1008.5 984.5 +16.6 0.0
06 17.08 С 3 4000 м дымка {ливн. осадки} 10/10 300 м
[St]
+17.0 +15.8 93 +17 +17 1008.7 984.7 +16.6 0.0
09 17.08 С 2 10 км гроза без осадков 10/10 600 м
[Sc]
+17.4 +15.5 89 +18 +18 1009.1 985.2
12 17.08 С 1 10 км слаб. ливневой дождь {гроза} 10/10 600 м
[Cb cap]
+16.8 +15.5 92 +18 +18 1009.4 985.4
15 17.08 С 3 10 км {ливн. осадки} 10/10 600 м
[Sc]
+16.5 +15.1 91 +16 +16 1009.7 985.7 2
18 17.08 СЗ 2 10 км {ливн. осадки} 10/10 600 м
[Sc]
+15.6 +14.0 90 +15 +15 1010.0 985.9 +18.0 2
21 17.08 З 1 10 км 10/10 600 м
[Sc]
+14.5 +13.4 93 +15 +15 1009.9 985.7
00 18.08 З 2 10 км 10/10 600 м
[Sc]
+13.8 +12.7 93 +13 +13 1010.9 986.7
03 18.08 З 2 10 км 10/10 600 м
[Sc]
+14.1 +12.7 91 +14 +14 1010.3 986.0 +13.7
06 18.08 З 2 4000 м слаб. ливневой дождь 10/10 600 м
[Cb cap]
+14.8 +13.7 93 +14 +14 1010.9 986.7 +13.7 0.0
09 18.08 ЮЗ 2 10 км {ливн. осадки} 10/10 600 м
[Sc]
+16.6 +12.9 79 +17 +17 1011.4 987.3
12 18.08 З 2 20 км {ливн. осадки} 10/10 600 м
[Sc]
+17.9 +12.2 69 +18 +18 1012.7 988.7
15 18.08 З 2 20 км 10/10 600 м
[Sc]
+17.9 +13.2 74 +18 +18 1014.0 990.0 0.3
18 18.08 СЗ 2 10 км 10/10 600 м
[Sc]
+16.9 +13.7 81 +17 +17 1015.3 991.1 +18.3 0.0
21 18.08 З 1 10 км 10/10 600 м
[Sc]
+14.8 +13.5 92 +15 +15 1016.2 991.8
00 19.08 З 1 4000 м дымка ясно +13.3 +12.7 96 +13 +13 1017.7 993.3
03 19.08 Ю 1 4000 м дымка ясно +11.6 +10.8 95 +11 +11 1018.6 993.9 +11.6
06 19.08 СЗ 1 10 км ясно +19.5 +13.4 68 +22 +29 комфорт 1019.9 996.0 +11.5
09 19.08 СВ 1 20 км 3/3 600 м
[Cu hum]
+23.4 +11.3 47 +26 +36 жарко 1019.1 995.4
12 19.08 СЗ 1 20 км 6/6 600 м
[Cu hum]
+24.3 +11.6 45 +26 +30 жарко 1019.6 996.0
15 19.08 С 1 20 км 3/3 600 м
[Cu hum]
+25.7 +11.3 41 +27 +28 жарко 1019.2 995.6
18 19.08 СЗ 1 10 км ясно +19.7 +11.8 60 +22 +22 комфорт 1020.6 996.6 +26.1
21 19.08 Ю 1 10 км ясно +18.0 +12.6 71 +19 +19 1021.3 997.1
00 20.08 Ю 1 10 км ясно +15.3 +13.0 86 +16 +16 1023.1 998.7
03 20.08 штиль 0 4000 м дымка ясно +14.0 +12.9 93 +14 +14 1022.8 998.2 +13.9
06 20.08 штиль 0 10 км ясно +22.2 +14.9 63 +26 +33 душно 1023.2 999.3 +13.9
09 20.08 СВ 2 20 км 3/3 600 м
[Cu med, cong]
+26.8 +9.1 33 +27 +36 жарко 1022.8 999.2
12 20.08 СВ 2 20 км ясно +28.6 +4.1 21 +27 +37 жарко 1023.4 1000.0
15 20.08 СВ 2 20 км ясно +28.3 +8.3 28 +28 +29 жарко 1021.8 998.4
18 20.08 штиль 0 н/о н/о +22.2 +11.4 50 +24 +24 комфорт 1023.3 999.3 +29.4
21 20.08 СВ 1 10 км ясно +19.2 +12.2 64 +21 +21 комфорт 1023.8 999.6
00 21.08 СВ 1 10 км ясно +17.8 +11.1 65 +19 +19 1025.5 1001.3
03 21.08 С 1 10 км ясно +15.8 +12.8 82 +16 +16 1024.5 1000.0 +15.1
06 21.08 СВ 1 20 км ясно +22.8 +13.1 54 +26 +32 жарко 1024.3 1000.4 +15.1
09 21.08 ЮВ 2 20 км ясно +29.1 +10.6 32 +29 +42 жарко 1023.1 999.7
12 21.08 СВ 3 20 км ясно +30.0 +10.0 29 +30 +38 жарко 1021.9 998.7
15 21.08 СВ 1 20 км ясно +29.5 +10.7 31 +30 +31 жарко 1020.6 997.3
18 21.08 СВ 1 10 км ясно +23.4 +13.3 53 +27 +27 душно 1021.1 997.3 +30.4
21 21.08 В 1 10 км ясно +20.3 +13.4 65 +24 +24 комфорт 1021.4 997.4
00 22.08 СВ 1 10 км ясно +19.0 +13.4 70 +21 +21 комфорт 1022.7 998.7
03 22.08 СВ 1 10 км ясно +16.7 +13.5 81 +18 +18 1021.3 997.0 +16.6
06 22.08 штиль 0 10 км 3/0
[Ci sp]
+23.8 +14.0 54 +26 +33 жарко 1021.4 997.6 +16.5
09 22.08 СВ 3 20 км 6/0
[Ci]
+28.8 +11.2 34 +29 +39 жарко 1020.6 997.3
12 22.08 С 3 20 км 6 баллов +30.2 +11.7 32 +31 +34 жарко 1020.4 997.3
15 22.08 С 4
{10}
20 км 8/6 600 м
[Cu med, cong Ci fib]
+27.9 +16.4 50 +31 +32 душно 1020.3 996.9
18 22.08 С 3
{11}
10 км 8/0
[Ci fib]
+20.3 +15.6 74 +23 +23 комфорт 1023.4 999.3 +30.8
21 22.08 С 3 10 км 10/10 600 м
[Sc]
+18.7 +14.9 79 +20 +20 1024.5 1000.3
00 23.08 С 3 10 км ясно +16.3 +12.5 78 +16 +16 1025.6 1001.3
03 23.08 СВ 3 10 км 4/0
[Ci fib]
+15.3 +12.4 83 +15 +15 1025.1 1000.6 +15.3

 

Местоположение метеостанции Рыльск (Курская область, Россия): широта 51.57 долгота 34.68 высота над уровнем моря 205 м.

В архиве по умолчанию представлена погода в Рыльск за последнюю неделю. Архивные данные за месяц целиком и за предыдущие месяцы, начиная с января 2011 года, Вы можете получить, выбрав интересующий диапазон дат из раскрывающегося списка и нажав кнопку "Ввод!".


*Определитесь, кто Вы:
робот инопланетянин человек

Внимание! Время в таблицах - всемирное. Для получения местного времени необходимо прибавить поправку, которая равна 3 ч.

Смотрите также архив погоды в соседних городах и на ближайших метеорологических станциях:

Погода в Глухове (Сумская область, Украина) (54 км)
Погода в Курчатове (Курская область, Россия) (70 км)
Погода в Дружбе (Сумская область, Украина) (73 км)
Погода в Сумах (Сумская область, Украина) (80 км)
Погода в Железногорске (Курская область, Россия) (99 км)
Погода в Фатеже (Курская область, Россия) (100 км)
Погода в Курске (Курская область, Россия) (105 км)
Погода в Дмитровск-Орловский (Орловская область, Россия) (108 км)
Погода в Конотопе (Сумская область, Украина) (109 км)
Погода в Лебедине (Сумская область, Украина) (111 км)

Пояснения к столбцам:

Ветер - указаны скорость ветра в м/с - средняя за 10 мин, порывы в срок и между сроками (в фигурных скобках) и направление, откуда дует ветер: С - северный, СВ - северо-восточный, В - восточный, ЮВ - юго-восточный, Ю - южный, ЮЗ - юго-западный, З - западный, СЗ - северо-западный.
Видимость - горизонтальная дальность видимости в метрах или километрах. При видимости от 1 до 10 км при отсутствии осадков обычно наблюдается дымка, при ухудшении видимости до 1 км и менее - туман. В сухую погоду видимость может ухудшаться дымом, пылью или мглою.
Явления - указаны атмосферные явления, наблюдавшиеся в срок или в последний час перед сроком; фигурными скобками обозначены явления, наблюдавшиеся между сроками (за 1-3 часа до срока); квадратными скобками обозначены град или гололедные отложения с указанием их диаметра в мм.
Облачность - указаны через наклонную черту общая и нижняя облачность в баллах и высота нижней границы облаков в метрах; квадратными скобками обозначены формы облаков: Ci - перистые, Cs - перисто-слоистые, Cc - перисто-кучевые, Ac - высококучевые, As - высокослоистые, Sc - слоисто-кучевые, Ns - слоисто-дождевые, Cu - кучевые, Cb - кучево-дождевые. Подробнее классификацию облаков см. в Атласе облаков (PDF).
T - Температура воздуха - температура, измеренная на высоте 2 м над землей.
Td - Температура точки росы - температура, при понижении до которой содержащийся в воздухе водяной пар достигнет насыщения.
f - Относительная влажность воздуха - влажноcть воздуха, измеренная на высоте 2 м над землей.
Te - Эффективная температура - температура, которую ощущает одетый по сезону человек в тени. Характеристика душности погоды. При расчете учитывается влияние влажности воздуха и скорости ветра на теплоощущения человека.
Tes - Эффективная температура на солнце - температура, которую ощущает человек, с поправкой на солнечный нагрев. Характеристика знойности погоды. Зависит от высоты солнца над горизонтом, облачности и скорости ветра. Ночью, в пасмурную погоду, а также при ветре 12 м/с и более поправка равна нулю.
P - Атмосферное давление - приведенное к уровню моря атмосферное давление.
Po - Атмосферное давление - измеренное на уровне метеостанции атмосферное давление.
Tmin - Минимальная температура - минимум температуры воздуха на высоте 2 м над землей.
Tmax - Максимальная температура - максимум температуры воздуха на высоте 2 м над землей.
R - Количество осадков - Количество выпавших осадков за период времени, мм. При наведении курсора мыши на число - период времени, за который выпало указанное количество осадков.
R24 - Количество осадков - Количество выпавших осадков за 24 часа, мм.
S - Снежный покров - Высота снежного покрова, см. При наведении курсора мыши на число - состояние снежного покрова и степень покрытия местности в баллах.